7 * 24
多渠道服务支持
TIANMU-1 13 是中国“天目”系列卫星中的一颗,主要用于遥感观测和空间科学研究。该卫星具备高分辨率成像能力,可应用于资源调查、环境监测、灾害预警等领域。其先进传感器和数据处理系统提升了图像质量和应用效率。TIANMU-1 13 的成功发射,进一步增强了中国在遥感卫星技术方面的实力,为国土管理和应急响应提供了有力支持。
中国
(CN)
| 数据来源 | 国际轨道数据 |
| 星历时间: | 2025-10-28T23:18:17+0800 16小时前 查看轨道信息 |
| 半长轴: | 6872.814km |
| 偏心率: | 0.0009777 |
| 轨道倾角: | 97.367° |
| 近地点辐角 | 71.266° |
| 升交点赤经 | 322.071° |
| 平近点角 | 288.964° |
| 近地点: | 487.959km |
| 远地点: | 501.399km |
| 周期: | 94.506分钟 |
| 每日圈数: | 15.23705 |